SKY0911 LGSR-LTBS

Flight info

Callsign SKY0911
Flight time 1h 7m
Altitude 7500
Route DIRECT
Aircraft DC3/M-SDE/L

Departure

Time 2026-04-22 19:05
Airport Santorini International Airport (LGSR)

Arrival

Time 2026-04-22 20:12
Airport Dalaman International Airport (LTBS)
Time Latitude Longitude Altitude Speed Heading
2026-04-22 18:44 36.40315 25.47408 116 ft 0 kts 340°
2026-04-22 18:58 36.40331 25.47402 116 ft 6 kts 343°
2026-04-22 18:58 36.40395 25.47406 114 ft 13 kts 33°
2026-04-22 18:58 36.40407 25.47511 108 ft 11 kts 157°
2026-04-22 18:59 36.40316 25.47558 103 ft 17 kts 154°
2026-04-22 18:59 36.40199 25.47623 101 ft 19 kts 157°
2026-04-22 18:59 36.40071 25.47681 100 ft 20 kts 159°
2026-04-22 18:59 36.39933 25.47749 96 ft 22 kts 156°
2026-04-22 19:00 36.39836 25.47797 93 ft 23 kts 158°
2026-04-22 19:00 36.39624 25.47895 83 ft 25 kts 161°
2026-04-22 19:00 36.39456 25.47974 75 ft 28 kts 156°
2026-04-22 19:00 36.39263 25.48064 69 ft 28 kts 163°
2026-04-22 19:01 36.39094 25.48139 61 ft 21 kts 161°
2026-04-22 19:01 36.39034 25.48166 56 ft 0 kts 155°
2026-04-22 19:01 36.39030 25.48169 56 ft 2 kts 156°
2026-04-22 19:01 36.39012 25.48182 55 ft 3 kts 131°
2026-04-22 19:02 36.39006 25.48209 53 ft 3 kts 69°
2026-04-22 19:02 36.39013 25.48228 52 ft 0 kts 64°
2026-04-22 19:02 36.39015 25.48233 51 ft 3 kts 63°
2026-04-22 19:02 36.39030 25.48269 47 ft 0 kts 59°
2026-04-22 19:03 36.39044 25.48297 45 ft 12 kts 48°
2026-04-22 19:03 36.39130 25.48293 50 ft 17 kts 337°
2026-04-22 19:03 36.39400 25.48195 60 ft 59 kts 325°
2026-04-22 19:04 36.39852 25.47936 84 ft 82 kts 340°
2026-04-22 19:04 36.40389 25.47761 266 ft 75 kts 346°
2026-04-22 19:04 36.40902 25.47590 442 ft 74 kts 350°
2026-04-22 19:04 36.41426 25.47353 532 ft 83 kts 349°
2026-04-22 19:05 36.42005 25.47234 697 ft 85 kts 12°
2026-04-22 19:05 36.42422 25.47749 798 ft 95 kts 76°
2026-04-22 19:05 36.42662 25.48621 734 ft 119 kts 71°
2026-04-22 19:05 36.42845 25.49643 817 ft 125 kts 87°
2026-04-22 19:06 36.42695 25.50722 950 ft 125 kts 101°
2026-04-22 19:06 36.42542 25.51769 1143 ft 120 kts 96°
2026-04-22 19:06 36.42706 25.52756 1305 ft 116 kts 80°
2026-04-22 19:07 36.43056 25.54663 1647 ft 112 kts 77°
2026-04-22 19:07 36.43234 25.55606 1811 ft 111 kts 77°
2026-04-22 19:07 36.43412 25.56530 1969 ft 108 kts 77°
2026-04-22 19:07 36.43590 25.57431 2113 ft 106 kts 77°
2026-04-22 19:08 36.43767 25.58305 2245 ft 105 kts 77°
2026-04-22 19:08 36.43944 25.59184 2373 ft 104 kts 77°
2026-04-22 19:08 36.44120 25.60058 2501 ft 103 kts 77°
2026-04-22 19:08 36.44296 25.60928 2626 ft 103 kts 76°
2026-04-22 19:09 36.44471 25.61788 2748 ft 102 kts 76°
2026-04-22 19:09 36.44644 25.62635 2865 ft 102 kts 76°
2026-04-22 19:09 36.44822 25.63490 2979 ft 102 kts 76°
2026-04-22 19:09 36.45000 25.64336 3094 ft 101 kts 76°
2026-04-22 19:10 36.45179 25.65176 3208 ft 101 kts 77°
2026-04-22 19:10 36.45357 25.66021 3326 ft 100 kts 77°
2026-04-22 19:10 36.45536 25.66856 3437 ft 100 kts 77°
2026-04-22 19:10 36.45721 25.67709 3554 ft 103 kts 77°
2026-04-22 19:11 36.45910 25.68571 3682 ft 104 kts 77°
2026-04-22 19:11 36.46102 25.69439 3810 ft 105 kts 77°
2026-04-22 19:11 36.46300 25.70311 3939 ft 105 kts 77°
2026-04-22 19:11 36.46500 25.71185 4067 ft 106 kts 77°
2026-04-22 19:12 36.46684 25.72070 4197 ft 106 kts 78°
2026-04-22 19:12 36.46852 25.72964 4325 ft 106 kts 79°
2026-04-22 19:12 36.47020 25.73859 4451 ft 106 kts 79°
2026-04-22 19:12 36.47189 25.74743 4574 ft 106 kts 79°
2026-04-22 19:13 36.47361 25.75633 4698 ft 106 kts 79°
2026-04-22 19:13 36.47410 25.76551 4814 ft 106 kts 91°
2026-04-22 19:13 36.47426 25.77459 4929 ft 106 kts 90°
2026-04-22 19:13 36.47447 25.78384 5049 ft 106 kts 90°
2026-04-22 19:14 36.47471 25.79287 5164 ft 106 kts 90°
2026-04-22 19:14 36.47498 25.80217 5279 ft 106 kts 90°
2026-04-22 19:14 36.47528 25.81136 5388 ft 107 kts 90°
2026-04-22 19:14 36.47565 25.82057 5497 ft 107 kts 90°
2026-04-22 19:15 36.47605 25.82976 5605 ft 107 kts 90°
2026-04-22 19:15 36.47648 25.83897 5710 ft 108 kts 90°
2026-04-22 19:15 36.47692 25.84833 5817 ft 108 kts 90°
2026-04-22 19:15 36.47738 25.85762 5924 ft 108 kts 90°
2026-04-22 19:16 36.47784 25.86696 6029 ft 108 kts 90°
2026-04-22 19:16 36.47833 25.87614 6133 ft 108 kts 90°
2026-04-22 19:16 36.47885 25.88542 6237 ft 107 kts 90°
2026-04-22 19:16 36.47940 25.89469 6338 ft 107 kts 90°
2026-04-22 19:17 36.48001 25.90399 6437 ft 108 kts 90°
2026-04-22 19:17 36.48063 25.91322 6531 ft 108 kts 90°
2026-04-22 19:17 36.48129 25.92259 6621 ft 109 kts 90°
2026-04-22 19:17 36.48197 25.93199 6713 ft 109 kts 90°
2026-04-22 19:18 36.48268 25.94142 6807 ft 109 kts 89°
2026-04-22 19:18 36.48340 25.95098 6854 ft 114 kts 89°
2026-04-22 19:18 36.48413 25.96100 6900 ft 117 kts 89°
2026-04-22 19:18 36.48486 25.97118 6958 ft 119 kts 89°
2026-04-22 19:19 36.48564 25.98140 7022 ft 120 kts 89°
2026-04-22 19:19 36.48644 25.99179 7089 ft 121 kts 89°
2026-04-22 19:19 36.48725 26.00223 7155 ft 121 kts 89°
2026-04-22 19:19 36.48808 26.01274 7224 ft 122 kts 89°
2026-04-22 19:20 36.48891 26.02325 7289 ft 123 kts 89°
2026-04-22 19:20 36.48975 26.03377 7356 ft 123 kts 89°
2026-04-22 19:20 36.49065 26.04444 7423 ft 123 kts 89°
2026-04-22 19:20 36.49155 26.05495 7487 ft 124 kts 89°
2026-04-22 19:21 36.49245 26.06568 7552 ft 124 kts 89°
2026-04-22 19:21 36.49335 26.07632 7614 ft 124 kts 89°
2026-04-22 19:21 36.49429 26.08699 7679 ft 124 kts 89°
2026-04-22 19:21 36.49527 26.09767 7742 ft 125 kts 89°
2026-04-22 19:22 36.49631 26.10833 7803 ft 125 kts 89°
2026-04-22 19:22 36.49737 26.11914 7860 ft 125 kts 88°
2026-04-22 19:22 36.49838 26.12990 7917 ft 126 kts 89°
2026-04-22 19:22 36.49938 26.14067 7974 ft 126 kts 89°
2026-04-22 19:23 36.50046 26.15164 8035 ft 126 kts 89°
2026-04-22 19:23 36.50150 26.16243 8092 ft 127 kts 89°
2026-04-22 19:23 36.50261 26.17330 8151 ft 127 kts 89°
2026-04-22 19:23 36.50373 26.18432 8169 ft 131 kts 89°
2026-04-22 19:24 36.50489 26.19583 8168 ft 135 kts 89°
2026-04-22 19:24 36.50603 26.20736 8182 ft 137 kts 88°
2026-04-22 19:24 36.50721 26.21926 8203 ft 138 kts 88°
2026-04-22 19:24 36.50834 26.23111 8227 ft 139 kts 88°
2026-04-22 19:25 36.50954 26.24311 8253 ft 139 kts 89°
2026-04-22 19:25 36.51071 26.25501 8280 ft 140 kts 88°
2026-04-22 19:25 36.51191 26.26707 8308 ft 140 kts 88°
2026-04-22 19:25 36.51313 26.27902 8335 ft 140 kts 88°
2026-04-22 19:26 36.51440 26.29115 8362 ft 140 kts 88°
2026-04-22 19:26 36.51564 26.30321 8389 ft 140 kts 88°
2026-04-22 19:26 36.51685 26.31520 8415 ft 141 kts 88°
2026-04-22 19:26 36.51807 26.32739 8444 ft 142 kts 88°
2026-04-22 19:27 36.51928 26.33974 8481 ft 143 kts 88°
2026-04-22 19:27 36.52053 26.35194 8519 ft 144 kts 88°
2026-04-22 19:27 36.52181 26.36440 8559 ft 144 kts 88°
2026-04-22 19:27 36.52314 26.37683 8600 ft 145 kts 87°
2026-04-22 19:28 36.52445 26.38917 8637 ft 145 kts 88°
2026-04-22 19:28 36.52576 26.40161 8677 ft 145 kts 87°
2026-04-22 19:28 36.52711 26.41416 8717 ft 146 kts 88°
2026-04-22 19:28 36.52845 26.42666 8716 ft 149 kts 88°
2026-04-22 19:29 36.52985 26.43966 8685 ft 153 kts 87°
2026-04-22 19:29 36.53126 26.45291 8637 ft 157 kts 87°
2026-04-22 19:29 36.53266 26.46640 8565 ft 161 kts 87°
2026-04-22 19:29 36.53385 26.48032 8503 ft 162 kts 89°
2026-04-22 19:30 36.53451 26.48984 8465 ft 163 kts 89°
2026-04-22 19:30 36.53579 26.50849 8394 ft 164 kts 89°
2026-04-22 19:30 36.53671 26.52262 8341 ft 164 kts 89°
2026-04-22 19:30 36.53760 26.53677 8288 ft 164 kts 89°
2026-04-22 19:31 36.53849 26.55100 8240 ft 164 kts 89°
2026-04-22 19:31 36.53939 26.56523 8193 ft 164 kts 89°
2026-04-22 19:31 36.54031 26.57935 8147 ft 164 kts 89°
2026-04-22 19:31 36.54123 26.59339 8103 ft 163 kts 89°
2026-04-22 19:32 36.54214 26.60744 8056 ft 163 kts 89°
2026-04-22 19:32 36.54306 26.62147 8010 ft 162 kts 89°
2026-04-22 19:32 36.54400 26.63552 7963 ft 162 kts 89°
2026-04-22 19:32 36.54496 26.64933 7918 ft 162 kts 89°
2026-04-22 19:33 36.54590 26.66334 7874 ft 161 kts 89°
2026-04-22 19:33 36.54681 26.67723 7830 ft 161 kts 89°
2026-04-22 19:33 36.54775 26.69111 7788 ft 161 kts 89°
2026-04-22 19:33 36.54868 26.70492 7745 ft 161 kts 89°
2026-04-22 19:34 36.54958 26.71873 7702 ft 160 kts 89°
2026-04-22 19:34 36.55048 26.73262 7660 ft 160 kts 89°
2026-04-22 19:34 36.55136 26.74647 7619 ft 160 kts 89°
2026-04-22 19:34 36.55223 26.76020 7579 ft 160 kts 89°
2026-04-22 19:35 36.55307 26.77400 7539 ft 159 kts 89°
2026-04-22 19:35 36.55393 26.78766 7498 ft 159 kts 89°
2026-04-22 19:35 36.55478 26.80142 7459 ft 159 kts 89°
2026-04-22 19:35 36.55562 26.81507 7421 ft 158 kts 89°
2026-04-22 19:36 36.55650 26.82863 7382 ft 158 kts 89°
2026-04-22 19:36 36.55738 26.84232 7343 ft 158 kts 89°
2026-04-22 19:36 36.55824 26.85588 7302 ft 157 kts 89°
2026-04-22 19:36 36.55911 26.86950 7263 ft 157 kts 89°
2026-04-22 19:37 36.55994 26.88290 7224 ft 157 kts 89°
2026-04-22 19:37 36.56082 26.89647 7185 ft 157 kts 89°
2026-04-22 19:37 36.56169 26.91000 7146 ft 156 kts 89°
2026-04-22 19:37 36.56255 26.92342 7111 ft 157 kts 89°
2026-04-22 19:38 36.56342 26.93715 7081 ft 159 kts 89°
2026-04-22 19:38 36.56429 26.95084 7054 ft 159 kts 88°
2026-04-22 19:38 36.56517 26.96460 7028 ft 159 kts 88°
2026-04-22 19:38 36.56604 26.97836 7004 ft 159 kts 88°
2026-04-22 19:39 36.56690 26.99196 6980 ft 159 kts 88°
2026-04-22 19:39 36.56777 27.00577 6958 ft 159 kts 88°
2026-04-22 19:39 36.56863 27.01963 6934 ft 159 kts 88°
2026-04-22 19:39 36.56921 27.02878 6920 ft 159 kts 88°
2026-04-22 19:40 36.57034 27.04690 6888 ft 159 kts 88°
2026-04-22 19:40 36.57120 27.06058 6864 ft 158 kts 88°
2026-04-22 19:40 36.57203 27.07430 6838 ft 158 kts 88°
2026-04-22 19:40 36.57282 27.08784 6815 ft 158 kts 88°
2026-04-22 19:41 36.57363 27.10165 6794 ft 158 kts 88°
2026-04-22 19:41 36.57475 27.11509 6772 ft 158 kts 86°
2026-04-22 19:41 36.57602 27.12875 6751 ft 157 kts 86°
2026-04-22 19:41 36.57729 27.14220 6727 ft 157 kts 86°
2026-04-22 19:42 36.57861 27.15576 6702 ft 157 kts 86°
2026-04-22 19:42 36.57991 27.16926 6679 ft 157 kts 85°
2026-04-22 19:42 36.58121 27.18274 6657 ft 157 kts 86°
2026-04-22 19:42 36.58251 27.19614 6634 ft 157 kts 85°
2026-04-22 19:43 36.58502 27.22302 6584 ft 157 kts 85°
2026-04-22 19:43 36.58625 27.23671 6561 ft 157 kts 85°
2026-04-22 19:43 36.58746 27.25013 6540 ft 157 kts 85°
2026-04-22 19:44 36.58871 27.26383 6519 ft 157 kts 85°
2026-04-22 19:44 36.58995 27.27715 6498 ft 157 kts 85°
2026-04-22 19:44 36.59120 27.29073 6475 ft 157 kts 85°
2026-04-22 19:44 36.59244 27.30421 6454 ft 157 kts 85°
2026-04-22 19:45 36.59372 27.31779 6431 ft 156 kts 85°
2026-04-22 19:45 36.59497 27.33124 6408 ft 156 kts 85°
2026-04-22 19:45 36.59625 27.34469 6384 ft 157 kts 85°
2026-04-22 19:45 36.59752 27.35802 6362 ft 157 kts 85°
2026-04-22 19:46 36.59884 27.37149 6339 ft 157 kts 85°
2026-04-22 19:46 36.60016 27.38511 6315 ft 157 kts 85°
2026-04-22 19:46 36.60149 27.39868 6293 ft 157 kts 85°
2026-04-22 19:46 36.60282 27.41218 6272 ft 157 kts 85°
2026-04-22 19:47 36.60415 27.42561 6249 ft 157 kts 85°
2026-04-22 19:47 36.60547 27.43907 6226 ft 157 kts 85°
2026-04-22 19:47 36.60674 27.45260 6202 ft 157 kts 85°
2026-04-22 19:47 36.60801 27.46608 6178 ft 158 kts 85°
2026-04-22 19:48 36.60930 27.47962 6159 ft 157 kts 85°
2026-04-22 19:48 36.61064 27.49332 6137 ft 158 kts 85°
2026-04-22 19:48 36.61196 27.50673 6117 ft 157 kts 84°
2026-04-22 19:48 36.61337 27.52035 6098 ft 157 kts 84°
2026-04-22 19:49 36.61476 27.53385 6074 ft 157 kts 84°
2026-04-22 19:49 36.61618 27.54737 6052 ft 158 kts 84°
2026-04-22 19:49 36.61760 27.56084 6030 ft 158 kts 84°
2026-04-22 19:49 36.61901 27.57435 6008 ft 158 kts 84°
2026-04-22 19:50 36.62048 27.58808 5984 ft 158 kts 84°
2026-04-22 19:50 36.62191 27.60153 5962 ft 158 kts 84°
2026-04-22 19:50 36.62332 27.61511 5941 ft 159 kts 84°
2026-04-22 19:50 36.62473 27.62883 5920 ft 159 kts 84°
2026-04-22 19:51 36.62611 27.64239 5899 ft 159 kts 84°
2026-04-22 19:51 36.62748 27.65614 5879 ft 159 kts 85°
2026-04-22 19:51 36.62884 27.66975 5866 ft 159 kts 85°
2026-04-22 19:51 36.63025 27.68358 5852 ft 159 kts 84°
2026-04-22 19:52 36.63164 27.69716 5839 ft 159 kts 84°
2026-04-22 19:52 36.63301 27.71077 5826 ft 158 kts 84°
2026-04-22 19:52 36.63443 27.72445 5809 ft 158 kts 84°
2026-04-22 19:52 36.63587 27.73801 5792 ft 159 kts 84°
2026-04-22 19:53 36.63736 27.75169 5778 ft 159 kts 84°
2026-04-22 19:53 36.63885 27.76546 5762 ft 160 kts 84°
2026-04-22 19:53 36.64033 27.77907 5749 ft 160 kts 84°
2026-04-22 19:53 36.64185 27.79288 5737 ft 160 kts 84°
2026-04-22 19:54 36.64315 27.80655 5724 ft 160 kts 85°
2026-04-22 19:54 36.64446 27.82035 5707 ft 160 kts 85°
2026-04-22 19:54 36.64571 27.83408 5689 ft 160 kts 85°
2026-04-22 19:54 36.64697 27.84790 5676 ft 160 kts 85°
2026-04-22 19:55 36.64818 27.86156 5665 ft 160 kts 85°
2026-04-22 19:55 36.64947 27.87537 5650 ft 160 kts 85°
2026-04-22 19:55 36.65077 27.88903 5639 ft 159 kts 85°
2026-04-22 19:55 36.65210 27.90287 5622 ft 160 kts 85°
2026-04-22 19:56 36.65344 27.91658 5607 ft 160 kts 85°
2026-04-22 19:56 36.65478 27.93034 5594 ft 162 kts 84°
2026-04-22 19:56 36.65617 27.94443 5583 ft 162 kts 84°
2026-04-22 19:56 36.65726 27.95835 5571 ft 163 kts 86°
2026-04-22 19:57 36.65819 27.97237 5566 ft 163 kts 86°
2026-04-22 19:57 36.65911 27.98656 5560 ft 163 kts 86°
2026-04-22 19:57 36.66003 28.00069 5558 ft 163 kts 86°
2026-04-22 19:57 36.66094 28.01469 5549 ft 163 kts 86°
2026-04-22 19:58 36.66181 28.02879 5535 ft 164 kts 86°
2026-04-22 19:58 36.66266 28.04303 5525 ft 164 kts 86°
2026-04-22 19:58 36.66350 28.05708 5526 ft 164 kts 86°
2026-04-22 19:58 36.66438 28.07131 5521 ft 164 kts 86°
2026-04-22 19:59 36.66525 28.08537 5513 ft 164 kts 86°
2026-04-22 20:00 36.67088 28.17047 5471 ft 164 kts 86°
2026-04-22 20:00 36.67180 28.18462 5454 ft 164 kts 86°
2026-04-22 20:01 36.67269 28.19895 5447 ft 164 kts 86°
2026-04-22 20:01 36.67358 28.21304 5450 ft 164 kts 86°
2026-04-22 20:01 36.67451 28.22727 5442 ft 164 kts 86°
2026-04-22 20:01 36.67543 28.24143 5435 ft 164 kts 85°
2026-04-22 20:02 36.67633 28.25565 5427 ft 164 kts 86°
2026-04-22 20:02 36.67724 28.26966 5424 ft 164 kts 85°
2026-04-22 20:02 36.67820 28.28399 5421 ft 164 kts 85°
2026-04-22 20:02 36.67913 28.29799 5414 ft 164 kts 85°
2026-04-22 20:03 36.67993 28.31226 5410 ft 164 kts 86°
2026-04-22 20:03 36.68070 28.32630 5406 ft 164 kts 86°
2026-04-22 20:03 36.68148 28.34054 5391 ft 164 kts 86°
2026-04-22 20:03 36.68224 28.35468 5380 ft 164 kts 86°
2026-04-22 20:04 36.68303 28.36904 5378 ft 164 kts 86°
2026-04-22 20:04 36.68380 28.38326 5376 ft 164 kts 86°
2026-04-22 20:04 36.68448 28.39750 5304 ft 168 kts 87°
2026-04-22 20:04 36.68506 28.41239 5148 ft 174 kts 87°
2026-04-22 20:05 36.68569 28.42748 5052 ft 175 kts 87°
2026-04-22 20:05 36.68600 28.44269 4914 ft 178 kts 88°
2026-04-22 20:05 36.68608 28.45808 4862 ft 176 kts 91°
2026-04-22 20:05 36.68529 28.47310 4840 ft 175 kts 95°
2026-04-22 20:06 36.68382 28.48858 4585 ft 183 kts 91°
2026-04-22 20:06 36.68378 28.50440 4439 ft 183 kts 92°
2026-04-22 20:06 36.68308 28.51969 4547 ft 171 kts 92°
2026-04-22 20:06 36.68199 28.53406 4602 ft 166 kts 96°
2026-04-22 20:07 36.68019 28.54838 4641 ft 164 kts 98°
2026-04-22 20:07 36.67850 28.56236 4709 ft 161 kts 95°
2026-04-22 20:07 36.67717 28.57592 4785 ft 158 kts 98°
2026-04-22 20:07 36.67466 28.58910 4952 ft 152 kts 103°
2026-04-22 20:08 36.67218 28.60195 5013 ft 153 kts 98°
2026-04-22 20:08 36.67156 28.61506 5027 ft 155 kts 84°
2026-04-22 20:08 36.67368 28.62874 4896 ft 165 kts 73°
2026-04-22 20:08 36.67742 28.64243 4806 ft 169 kts 73°
2026-04-22 20:09 36.67972 28.65688 4773 ft 170 kts 84°
2026-04-22 20:09 36.68089 28.67158 4688 ft 173 kts 85°
2026-04-22 20:09 36.68177 28.68668 4626 ft 174 kts 87°
2026-04-22 20:09 36.68204 28.70207 4401 ft 182 kts 91°
2026-04-22 20:10 36.68152 28.71780 4283 ft 182 kts 94°
2026-04-22 20:10 36.67954 28.73348 4051 ft 184 kts 112°
2026-04-22 20:10 36.67798 28.74499 4392 ft 114 kts 75°
2026-04-22 20:10 36.67815 28.75652 2928 ft 171 kts 93°
2026-04-22 20:11 36.68007 28.76806 2129 ft 141 kts 73°
2026-04-22 20:11 36.68477 28.77766 1014 ft 135 kts 55°
2026-04-22 20:11 36.69121 28.78463 357 ft 115 kts 27°
2026-04-22 20:11 36.69834 28.78717 100 ft 103 kts 19°
2026-04-22 20:12 36.70503 28.78963 15 ft 95 kts 17°
2026-04-22 20:12 36.71047 28.79155 16 ft 66 kts 11°
2026-04-22 20:12 36.71411 28.79250 18 ft 40 kts
2026-04-22 20:12 36.71648 28.79362 19 ft 36 kts 19°
2026-04-22 20:13 36.71866 28.79420 19 ft 29 kts 358°
2026-04-22 20:13 36.72089 28.79400 22 ft 35 kts 347°
2026-04-22 20:13 36.72284 28.79273 28 ft 27 kts 273°
2026-04-22 20:13 36.72167 28.79155 26 ft 23 kts 198°
2026-04-22 20:14 36.71957 28.79078 24 ft 38 kts 196°
2026-04-22 20:14 36.71695 28.78989 21 ft 35 kts 217°
2026-04-22 20:14 36.71686 28.78916 21 ft 4 kts 157°
2026-04-22 20:14 36.71591 28.78890 20 ft 21 kts 214°
2026-04-22 20:15 36.71558 28.78767 20 ft 0 kts 284°
2026-04-22 20:15 36.71559 28.78764 20 ft 0 kts 284°